Time,TemperatureF,DewpointF,PressureIn,WindDirection,WindDirectionDegrees,WindSpeedMPH,WindSpeedGustMPH,Humidity,HourlyPrecipIn,Conditions,Clouds,dailyrainin,SoftwareType,DateUTC
2013-08-10 00:01:00,71.2,69.8,29.99,NNE,18,0.0,1.0,95,0.00,,,0.70,meteohub,2013-08-10 04:01:00,
2013-08-10 00:06:00,71.2,69.8,29.99,NNE,18,0.0,1.0,95,0.00,,,0.00,meteohub,2013-08-10 04:06:00,
2013-08-10 00:11:00,71.2,69.8,30.00,NNE,18,0.0,1.0,95,0.00,,,0.00,meteohub,2013-08-10 04:11:00,
2013-08-10 00:16:00,71.1,69.6,30.00,NNE,18,0.0,1.0,95,0.00,,,0.00,meteohub,2013-08-10 04:16:00,
2013-08-10 00:21:00,71.1,69.6,30.00,NNE,18,0.0,1.0,95,0.00,,,0.00,meteohub,2013-08-10 04:21:00,
2013-08-10 00:26:00,71.1,69.6,30.00,NNE,18,0.0,1.0,95,0.00,,,0.00,meteohub,2013-08-10 04:26:00,
2013-08-10 00:31:00,70.9,69.4,30.00,NNE,18,0.0,1.0,95,0.00,,,0.00,meteohub,2013-08-10 04:31:00,
2013-08-10 00:36:00,70.9,69.4,30.00,NNE,18,0.0,1.0,95,0.00,,,0.00,meteohub,2013-08-10 04:36:00,
2013-08-10 00:41:00,70.9,69.4,30.00,NNE,18,1.0,1.0,95,0.00,,,0.00,meteohub,2013-08-10 04:41:00,
2013-08-10 00:46:00,70.7,69.3,30.00,NNE,18,0.0,1.0,95,0.00,,,0.00,meteohub,2013-08-10 04:46:00,
2013-08-10 00:51:00,70.7,69.3,30.00,NNE,18,0.0,1.0,95,0.00,,,0.00,meteohub,2013-08-10 04:51:00,
2013-08-10 00:56:00,70.7,69.3,30.00,NNE,18,0.0,1.0,95,0.00,,,0.00,meteohub,2013-08-10 04:56:00,
2013-08-10 01:01:00,70.5,69.1,30.00,NNE,18,0.0,1.0,95,0.00,,,0.00,meteohub,2013-08-10 05:01:00,
2013-08-10 01:06:00,70.5,69.1,30.00,NNE,18,0.0,1.0,95,0.00,,,0.00,meteohub,2013-08-10 05:06:00,
2013-08-10 01:11:00,70.5,69.1,30.01,NNE,18,0.0,1.0,95,0.00,,,0.00,meteohub,2013-08-10 05:11:00,
2013-08-10 01:16:00,70.5,69.1,30.01,NNE,18,0.0,1.0,95,0.00,,,0.00,meteohub,2013-08-10 05:16:00,
2013-08-10 01:21:00,70.3,68.9,30.01,NNE,18,1.0,1.0,95,0.00,,,0.00,meteohub,2013-08-10 05:21:00,
2013-08-10 01:26:00,70.3,68.9,30.01,NNE,18,0.0,1.0,95,0.00,,,0.00,meteohub,2013-08-10 05:26:00,
2013-08-10 01:31:00,70.3,68.9,30.01,NNE,18,0.0,1.0,95,0.00,,,0.00,meteohub,2013-08-10 05:31:00,
2013-08-10 01:36:00,70.3,68.9,30.00,NNE,18,1.0,1.0,95,0.00,,,0.00,meteohub,2013-08-10 05:36:00,
2013-08-10 01:41:00,70.5,69.1,30.01,NNE,18,0.0,1.0,95,0.00,,,0.00,meteohub,2013-08-10 05:41:00,
2013-08-10 01:46:00,70.5,69.1,30.01,NNE,18,0.0,1.0,95,0.00,,,0.00,meteohub,2013-08-10 05:46:00,
2013-08-10 01:51:00,70.5,69.1,30.00,NNE,18,0.0,1.0,95,0.00,,,0.00,meteohub,2013-08-10 05:51:00,
2013-08-10 01:56:00,70.5,69.3,30.01,NNE,18,0.0,1.0,96,0.00,,,0.00,meteohub,2013-08-10 05:56:00,
2013-08-10 02:02:00,70.3,68.9,30.01,NNE,17,0.0,1.0,95,0.00,,,0.00,meteohub,2013-08-10 06:02:00,
2013-08-10 02:07:00,70.3,68.9,30.01,NNE,18,0.0,1.0,95,0.00,,,0.00,meteohub,2013-08-10 06:07:00,
2013-08-10 02:12:00,70.3,68.9,30.01,NNE,18,0.0,1.0,95,0.00,,,0.00,meteohub,2013-08-10 06:12:00,
2013-08-10 02:17:00,70.3,68.9,30.01,NNE,18,0.0,1.0,95,0.00,,,0.00,meteohub,2013-08-10 06:17:00,
2013-08-10 02:22:00,70.3,69.1,30.01,NNE,18,0.0,1.0,96,0.00,,,0.00,meteohub,2013-08-10 06:22:00,
2013-08-10 02:27:00,70.2,68.9,30.02,NNE,18,0.0,1.0,96,0.00,,,0.00,meteohub,2013-08-10 06:27:00,
2013-08-10 02:32:00,70.2,68.9,30.02,NNE,18,0.0,0.0,96,0.00,,,0.00,meteohub,2013-08-10 06:32:00,
2013-08-10 02:37:00,70.2,68.7,30.02,NNE,18,0.0,1.0,95,0.00,,,0.00,meteohub,2013-08-10 06:37:00,
2013-08-10 02:42:00,70.2,68.9,30.02,NNE,18,0.0,1.0,96,0.00,,,0.00,meteohub,2013-08-10 06:42:00,
2013-08-10 02:47:00,70.2,68.9,30.02,NNE,18,0.0,1.0,96,0.00,,,0.00,meteohub,2013-08-10 06:47:00,
2013-08-10 02:52:00,70.2,68.9,30.02,NNE,18,0.0,1.0,96,0.00,,,0.00,meteohub,2013-08-10 06:52:00,
2013-08-10 02:57:00,70.0,68.7,30.02,NNE,18,0.0,1.0,96,0.00,,,0.00,meteohub,2013-08-10 06:57:00,
2013-08-10 03:02:00,70.0,68.7,30.02,NNE,18,0.0,1.0,96,0.00,,,0.00,meteohub,2013-08-10 07:02:00,
2013-08-10 03:07:00,70.0,68.7,30.03,NNE,18,0.0,1.0,96,0.00,,,0.00,meteohub,2013-08-10 07:07:00,
2013-08-10 03:12:00,70.0,68.7,30.03,NNE,18,0.0,1.0,96,0.00,,,0.00,meteohub,2013-08-10 07:12:00,
2013-08-10 03:17:00,70.0,68.7,30.03,NNE,18,0.0,1.0,96,0.00,,,0.00,meteohub,2013-08-10 07:17:00,
2013-08-10 03:22:00,70.0,68.7,30.03,NNE,18,0.0,1.0,96,0.00,,,0.00,meteohub,2013-08-10 07:22:00,
2013-08-10 03:27:00,70.0,68.7,30.03,NNE,18,0.0,1.0,96,0.00,,,0.00,meteohub,2013-08-10 07:27:00,
2013-08-10 03:32:00,70.0,68.7,30.04,NNE,18,0.0,1.0,96,0.00,,,0.00,meteohub,2013-08-10 07:32:00,
2013-08-10 03:37:00,70.0,68.7,30.04,WSW,255,0.0,1.0,96,0.00,,,0.00,meteohub,2013-08-10 07:37:00,
2013-08-10 03:42:00,69.8,68.5,30.04,WNW,293,0.0,1.0,96,0.00,,,0.00,meteohub,2013-08-10 07:42:00,
2013-08-10 03:47:00,69.6,68.4,30.04,NNW,335,0.0,1.0,96,0.00,,,0.00,meteohub,2013-08-10 07:47:00,
2013-08-10 03:52:00,69.4,68.2,30.04,NNW,337,0.0,1.0,96,0.00,,,0.00,meteohub,2013-08-10 07:52:00,
2013-08-10 03:57:00,69.3,67.8,30.04,NNW,334,1.0,1.0,95,0.00,,,0.00,meteohub,2013-08-10 07:57:00,
2013-08-10 04:02:00,68.7,67.3,30.05,North,352,0.0,2.0,95,0.00,,,0.00,meteohub,2013-08-10 08:02:00,
2013-08-10 04:07:00,68.4,66.9,30.05,NNW,328,1.0,2.0,95,0.00,,,0.00,meteohub,2013-08-10 08:07:00,
2013-08-10 04:12:00,67.8,66.4,30.05,North,0,1.0,2.0,95,0.00,,,0.00,meteohub,2013-08-10 08:12:00,
2013-08-10 04:17:00,67.6,66.2,30.05,North,8,1.0,2.0,95,0.00,,,0.00,meteohub,2013-08-10 08:17:00,
2013-08-10 04:22:00,67.5,66.0,30.05,North,0,1.0,2.0,95,0.00,,,0.00,meteohub,2013-08-10 08:22:00,
2013-08-10 04:27:00,67.3,65.8,30.05,NNE,15,1.0,2.0,95,0.00,,,0.00,meteohub,2013-08-10 08:27:00,
2013-08-10 04:32:00,67.3,65.8,30.05,NNW,345,1.0,2.0,95,0.00,,,0.00,meteohub,2013-08-10 08:32:00,
2013-08-10 04:37:00,66.9,65.5,30.05,North,5,1.0,2.0,95,0.00,,,0.00,meteohub,2013-08-10 08:37:00,
2013-08-10 04:42:00,66.6,65.1,30.05,North,351,0.0,3.0,95,0.00,,,0.00,meteohub,2013-08-10 08:42:00,
2013-08-10 04:47:00,66.4,64.9,30.05,North,4,0.0,3.0,95,0.00,,,0.00,meteohub,2013-08-10 08:47:00,
2013-08-10 04:52:00,66.4,64.9,30.05,North,4,0.0,2.0,95,0.00,,,0.00,meteohub,2013-08-10 08:52:00,
2013-08-10 04:57:00,66.2,64.8,30.06,North,352,0.0,2.0,95,0.00,,,0.00,meteohub,2013-08-10 08:57:00,
2013-08-10 05:02:00,66.0,64.6,30.06,West,273,0.0,1.0,95,0.00,,,0.00,meteohub,2013-08-10 09:02:00,
2013-08-10 05:07:00,65.7,64.2,30.06,SW,231,0.0,1.0,95,0.00,,,0.00,meteohub,2013-08-10 09:07:00,
2013-08-10 05:12:00,65.5,64.0,30.06,SW,232,0.0,1.0,95,0.00,,,0.00,meteohub,2013-08-10 09:12:00,
2013-08-10 05:17:00,65.5,64.0,30.07,SW,231,0.0,1.0,95,0.00,,,0.00,meteohub,2013-08-10 09:17:00,
2013-08-10 05:22:00,65.1,63.7,30.07,SW,232,0.0,1.0,95,0.00,,,0.00,meteohub,2013-08-10 09:22:00,
2013-08-10 05:27:00,65.1,63.7,30.08,SSW,212,0.0,1.0,95,0.00,,,0.00,meteohub,2013-08-10 09:27:00,
2013-08-10 05:32:00,64.9,63.5,30.08,SSW,212,0.0,1.0,95,0.00,,,0.00,meteohub,2013-08-10 09:32:00,
2013-08-10 05:37:00,64.8,63.3,30.08,SSW,212,0.0,1.0,95,0.00,,,0.00,meteohub,2013-08-10 09:37:00,
2013-08-10 05:42:00,64.6,63.1,30.08,SSW,212,0.0,1.0,95,0.00,,,0.00,meteohub,2013-08-10 09:42:00,
2013-08-10 05:47:00,64.2,62.8,30.09,SSW,212,0.0,0.0,95,0.00,,,0.00,meteohub,2013-08-10 09:47:00,
2013-08-10 05:52:00,64.2,62.8,30.09,SSW,212,0.0,0.0,95,0.00,,,0.00,meteohub,2013-08-10 09:52:00,
2013-08-10 05:57:00,64.0,62.6,30.09,SSW,213,0.0,0.0,95,0.00,,,0.00,meteohub,2013-08-10 09:57:00,
2013-08-10 06:02:00,63.9,62.4,30.09,SSW,212,0.0,0.0,95,0.00,,,0.00,meteohub,2013-08-10 10:02:00,
2013-08-10 06:07:00,63.9,62.4,30.09,SSW,212,0.0,1.0,95,0.00,,,0.00,meteohub,2013-08-10 10:07:00,
2013-08-10 06:12:00,63.9,62.4,30.09,SSW,213,0.0,1.0,95,0.00,,,0.00,meteohub,2013-08-10 10:12:00,
2013-08-10 06:17:00,64.0,63.0,30.09,SSW,212,0.0,1.0,96,0.00,,,0.00,meteohub,2013-08-10 10:17:00,
2013-08-10 06:22:00,63.9,62.8,30.09,SSW,212,0.0,1.0,96,0.00,,,0.00,meteohub,2013-08-10 10:22:00,
2013-08-10 06:27:00,63.9,62.8,30.10,SSW,213,0.0,1.0,96,0.00,,,0.00,meteohub,2013-08-10 10:27:00,
2013-08-10 06:32:00,63.7,62.6,30.10,SSW,212,0.0,1.0,96,0.00,,,0.00,meteohub,2013-08-10 10:32:00,
2013-08-10 06:37:00,63.9,62.8,30.10,SSW,213,0.0,0.0,96,0.00,,,0.00,meteohub,2013-08-10 10:37:00,
2013-08-10 06:42:00,63.7,62.6,30.10,SSW,212,0.0,0.0,96,0.00,,,0.00,meteohub,2013-08-10 10:42:00,
2013-08-10 06:47:00,63.7,62.6,30.10,SSW,212,0.0,0.0,96,0.00,,,0.00,meteohub,2013-08-10 10:47:00,
2013-08-10 06:52:00,63.5,62.4,30.10,SSW,212,0.0,1.0,96,0.00,,,0.00,meteohub,2013-08-10 10:52:00,
2013-08-10 06:58:00,63.3,62.2,30.10,SSW,212,0.0,1.0,96,0.00,,,0.00,meteohub,2013-08-10 10:58:00,
2013-08-10 07:03:00,63.3,62.2,30.10,SSW,212,0.0,0.0,96,0.00,,,0.00,meteohub,2013-08-10 11:03:00,
2013-08-10 07:08:00,63.3,62.2,30.11,SSW,213,0.0,0.0,96,0.00,,,0.00,meteohub,2013-08-10 11:08:00,
2013-08-10 07:13:00,63.5,62.4,30.11,SSW,212,0.0,0.0,96,0.00,,,0.00,meteohub,2013-08-10 11:13:00,
2013-08-10 07:18:00,63.5,62.4,30.11,SSW,212,0.0,0.0,96,0.00,,,0.00,meteohub,2013-08-10 11:18:00,
2013-08-10 07:23:00,63.7,62.6,30.11,SSW,212,0.0,0.0,96,0.00,,,0.00,meteohub,2013-08-10 11:23:00,
2013-08-10 07:28:00,63.7,62.6,30.11,SSW,212,0.0,0.0,96,0.00,,,0.00,meteohub,2013-08-10 11:28:00,
2013-08-10 07:33:00,63.9,62.8,30.11,SSW,212,0.0,0.0,96,0.00,,,0.00,meteohub,2013-08-10 11:33:00,
2013-08-10 07:38:00,63.9,62.8,30.11,SSW,213,0.0,0.0,96,0.00,,,0.00,meteohub,2013-08-10 11:38:00,
2013-08-10 07:43:00,63.9,62.8,30.11,SSW,212,0.0,0.0,96,0.01,,,0.01,meteohub,2013-08-10 11:43:00,
2013-08-10 07:44:00,64.0,63.0,30.11,SSW,212,0.0,0.0,96,0.01,,,0.01,meteohub,2013-08-10 11:44:00,
2013-08-10 07:49:00,64.0,63.0,30.11,SSW,212,0.0,0.0,96,0.01,,,0.01,meteohub,2013-08-10 11:49:00,
2013-08-10 07:54:00,64.2,63.1,30.11,SSW,212,0.0,0.0,96,0.01,,,0.01,meteohub,2013-08-10 11:54:00,
2013-08-10 07:59:00,64.4,63.3,30.11,SSW,212,0.0,0.0,96,0.01,,,0.01,meteohub,2013-08-10 11:59:00,
2013-08-10 08:04:00,64.6,63.5,30.11,SSW,212,0.0,0.0,96,0.01,,,0.01,meteohub,2013-08-10 12:04:00,
2013-08-10 08:09:00,64.9,63.9,30.11,SSW,212,0.0,1.0,96,0.01,,,0.01,meteohub,2013-08-10 12:09:00,
2013-08-10 08:14:00,65.1,64.0,30.12,SSW,212,0.0,1.0,96,0.01,,,0.01,meteohub,2013-08-10 12:14:00,
2013-08-10 08:19:00,65.1,64.0,30.12,SSW,213,0.0,1.0,96,0.01,,,0.01,meteohub,2013-08-10 12:19:00,
2013-08-10 08:24:00,65.3,64.0,30.12,SSW,212,0.0,1.0,96,0.01,,,0.01,meteohub,2013-08-10 12:24:00,
2013-08-10 08:29:00,65.5,64.2,30.12,SSW,212,0.0,1.0,96,0.01,,,0.01,meteohub,2013-08-10 12:29:00,
2013-08-10 08:34:00,65.7,64.4,30.12,SSW,212,0.0,1.0,96,0.01,,,0.01,meteohub,2013-08-10 12:34:00,
2013-08-10 08:39:00,66.4,65.1,30.12,WSW,256,0.0,1.0,96,0.00,,,0.01,meteohub,2013-08-10 12:39:00,
2013-08-10 08:44:00,66.4,65.1,30.12,WNW,300,1.0,1.0,96,0.00,,,0.01,meteohub,2013-08-10 12:44:00,
2013-08-10 08:49:00,66.6,65.3,30.12,WNW,300,0.0,2.0,96,0.00,,,0.01,meteohub,2013-08-10 12:49:00,
2013-08-10 08:54:00,66.9,65.5,30.12,NNW,335,0.0,2.0,95,0.00,,,0.01,meteohub,2013-08-10 12:54:00,
2013-08-10 08:59:00,67.3,65.8,30.12,West,260,1.0,2.0,95,0.00,,,0.01,meteohub,2013-08-10 12:59:00,
2013-08-10 09:04:00,67.6,65.8,30.12,NW,304,1.0,2.0,94,0.00,,,0.01,meteohub,2013-08-10 13:04:00,
2013-08-10 09:09:00,68.2,66.0,30.12,West,270,0.0,2.0,93,0.00,,,0.01,meteohub,2013-08-10 13:09:00,
2013-08-10 09:14:00,68.7,66.4,30.12,NW,304,1.0,3.0,92,0.00,,,0.01,meteohub,2013-08-10 13:14:00,
2013-08-10 09:19:00,68.9,66.2,30.13,WNW,284,0.0,3.0,91,0.00,,,0.01,meteohub,2013-08-10 13:19:00,
2013-08-10 09:24:00,69.3,66.6,30.13,WNW,302,0.0,3.0,91,0.00,,,0.01,meteohub,2013-08-10 13:24:00,
2013-08-10 09:29:00,69.4,66.7,30.13,WNW,302,1.0,2.0,91,0.00,,,0.01,meteohub,2013-08-10 13:29:00,
2013-08-10 09:34:00,70.0,66.9,30.12,NNW,336,1.0,2.0,90,0.00,,,0.01,meteohub,2013-08-10 13:34:00,
2013-08-10 09:39:00,70.3,65.7,30.12,West,263,1.0,4.0,85,0.00,,,0.01,meteohub,2013-08-10 13:39:00,
2013-08-10 09:44:00,70.7,66.4,30.12,NNW,346,2.0,4.0,86,0.00,,,0.01,meteohub,2013-08-10 13:44:00,
2013-08-10 09:49:00,71.1,66.0,30.13,WNW,297,1.0,4.0,84,0.00,,,0.01,meteohub,2013-08-10 13:49:00,
2013-08-10 09:54:00,71.4,66.0,30.13,NW,315,2.0,4.0,83,0.00,,,0.01,meteohub,2013-08-10 13:54:00,
2013-08-10 09:59:00,72.0,66.6,30.13,West,263,1.0,4.0,83,0.00,,,0.01,meteohub,2013-08-10 13:59:00,
2013-08-10 10:04:00,72.0,66.2,30.13,NW,311,1.0,3.0,82,0.00,,,0.01,meteohub,2013-08-10 14:04:00,
2013-08-10 10:09:00,71.8,66.4,30.13,West,281,0.0,2.0,83,0.00,,,0.01,meteohub,2013-08-10 14:09:00,
2013-08-10 10:14:00,71.6,66.2,30.12,NW,304,0.0,2.0,83,0.00,,,0.01,meteohub,2013-08-10 14:14:00,
2013-08-10 10:19:00,71.8,66.4,30.12,WNW,302,0.0,2.0,83,0.00,,,0.01,meteohub,2013-08-10 14:19:00,
2013-08-10 10:24:00,72.1,66.4,30.12,WNW,302,0.0,1.0,82,0.00,,,0.01,meteohub,2013-08-10 14:24:00,
2013-08-10 10:29:00,72.9,66.7,30.12,NNW,338,1.0,1.0,81,0.00,,,0.01,meteohub,2013-08-10 14:29:00,
2013-08-10 10:34:00,73.0,66.9,30.12,NNW,337,1.0,1.0,81,0.00,,,0.01,meteohub,2013-08-10 14:34:00,
2013-08-10 10:39:00,73.6,66.7,30.12,West,280,0.0,1.0,79,0.00,,,0.01,meteohub,2013-08-10 14:39:00,
2013-08-10 10:44:00,73.8,66.9,30.12,West,262,0.0,1.0,79,0.00,,,0.01,meteohub,2013-08-10 14:44:00,
2013-08-10 10:49:00,73.9,67.5,30.12,West,262,0.0,1.0,80,0.00,,,0.01,meteohub,2013-08-10 14:49:00,
2013-08-10 10:54:00,74.3,68.0,30.12,West,262,0.0,1.0,81,0.00,,,0.01,meteohub,2013-08-10 14:54:00,
2013-08-10 10:59:00,75.0,68.0,30.12,West,260,0.0,1.0,79,0.00,,,0.01,meteohub,2013-08-10 14:59:00,
2013-08-10 11:04:00,75.6,68.2,30.12,WNW,287,0.0,1.0,78,0.00,,,0.01,meteohub,2013-08-10 15:04:00,
2013-08-10 11:09:00,75.9,67.1,30.12,West,278,0.0,1.0,74,0.00,,,0.01,meteohub,2013-08-10 15:09:00,
2013-08-10 11:14:00,76.5,68.0,30.12,WNW,296,1.0,2.0,75,0.00,,,0.01,meteohub,2013-08-10 15:14:00,
2013-08-10 11:20:00,76.5,67.1,30.12,North,356,2.0,2.0,73,0.00,,,0.01,meteohub,2013-08-10 15:20:00,
2013-08-10 11:25:00,76.1,66.7,30.12,WNW,297,0.0,2.0,73,0.00,,,0.01,meteohub,2013-08-10 15:25:00,
2013-08-10 11:30:00,75.7,66.4,30.12,West,276,1.0,3.0,73,0.00,,,0.01,meteohub,2013-08-10 15:30:00,
2013-08-10 11:35:00,75.9,66.2,30.12,WNW,294,0.0,3.0,72,0.00,,,0.01,meteohub,2013-08-10 15:35:00,
2013-08-10 11:39:00,76.5,67.6,30.12,NNE,20,1.0,2.0,74,0.00,,,0.01,meteohub,2013-08-10 15:39:00,
2013-08-10 11:44:00,76.6,65.7,30.12,NW,316,1.0,3.0,69,0.00,,,0.01,meteohub,2013-08-10 15:44:00,
2013-08-10 11:49:00,77.5,66.2,30.12,West,271,1.0,3.0,68,0.00,,,0.01,meteohub,2013-08-10 15:49:00,
2013-08-10 11:54:00,78.1,66.7,30.12,WSW,256,2.0,3.0,68,0.00,,,0.01,meteohub,2013-08-10 15:54:00,
2013-08-10 11:59:00,77.5,65.7,30.12,WNW,288,0.0,3.0,67,0.00,,,0.01,meteohub,2013-08-10 15:59:00,
2013-08-10 12:05:00,77.4,66.0,30.12,NW,305,0.0,4.0,68,0.00,,,0.01,meteohub,2013-08-10 16:05:00,
2013-08-10 12:10:00,76.8,66.2,30.12,WNW,300,0.0,4.0,70,0.00,,,0.01,meteohub,2013-08-10 16:10:00,
2013-08-10 12:15:00,76.6,66.6,30.12,WNW,302,0.0,4.0,71,0.00,,,0.01,meteohub,2013-08-10 16:15:00,
2013-08-10 12:20:00,77.4,66.7,30.12,WSW,241,0.0,2.0,70,0.00,,,0.01,meteohub,2013-08-10 16:20:00,
2013-08-10 12:25:00,78.3,68.5,30.12,West,267,1.0,2.0,72,0.00,,,0.01,meteohub,2013-08-10 16:25:00,
2013-08-10 12:30:00,78.4,66.9,30.12,West,273,1.0,2.0,68,0.00,,,0.01,meteohub,2013-08-10 16:30:00,
2013-08-10 12:35:00,78.6,67.1,30.12,SW,226,1.0,2.0,68,0.00,,,0.01,meteohub,2013-08-10 16:35:00,
2013-08-10 12:40:00,79.2,67.6,30.12,West,264,0.0,2.0,68,0.00,,,0.01,meteohub,2013-08-10 16:40:00,
2013-08-10 12:45:00,79.3,66.9,30.12,North,350,0.0,2.0,66,0.00,,,0.01,meteohub,2013-08-10 16:45:00,
2013-08-10 12:50:00,79.5,68.5,30.12,West,273,0.0,4.0,69,0.00,,,0.01,meteohub,2013-08-10 16:50:00,
2013-08-10 12:55:00,79.9,67.1,30.12,NNE,33,1.0,4.0,65,0.00,,,0.01,meteohub,2013-08-10 16:55:00,
2013-08-10 13:00:00,80.6,67.8,30.12,SSW,210,1.0,4.0,65,0.00,,,0.01,meteohub,2013-08-10 17:00:00,
2013-08-10 13:05:00,80.2,66.0,30.12,NNW,343,0.0,2.0,62,0.00,,,0.01,meteohub,2013-08-10 17:05:00,
2013-08-10 13:10:00,79.9,67.5,30.12,NW,305,0.0,3.0,66,0.00,,,0.01,meteohub,2013-08-10 17:10:00,
2013-08-10 13:15:00,79.5,67.6,30.12,WNW,294,1.0,3.0,67,0.00,,,0.01,meteohub,2013-08-10 17:15:00,
2013-08-10 13:20:00,79.3,67.8,30.12,NW,321,1.0,3.0,68,0.00,,,0.01,meteohub,2013-08-10 17:20:00,
2013-08-10 13:25:00,79.3,67.8,30.12,North,6,1.0,3.0,68,0.00,,,0.01,meteohub,2013-08-10 17:25:00,
2013-08-10 13:30:00,79.2,67.6,30.12,West,280,1.0,3.0,68,0.00,,,0.01,meteohub,2013-08-10 17:30:00,
2013-08-10 13:35:00,79.3,67.5,30.12,West,270,1.0,3.0,67,0.00,,,0.01,meteohub,2013-08-10 17:35:00,
2013-08-10 13:40:00,79.3,66.9,30.12,West,277,0.0,2.0,66,0.00,,,0.01,meteohub,2013-08-10 17:40:00,
2013-08-10 13:45:00,80.1,67.3,30.12,ENE,73,2.0,2.0,65,0.00,,,0.01,meteohub,2013-08-10 17:45:00,
2013-08-10 13:50:00,80.8,68.0,30.12,WSW,246,1.0,1.0,65,0.00,,,0.01,meteohub,2013-08-10 17:50:00,
2013-08-10 13:55:00,81.0,68.0,30.11,West,259,2.0,4.0,65,0.00,,,0.01,meteohub,2013-08-10 17:55:00,
2013-08-10 14:00:00,80.8,68.7,30.11,West,262,1.0,5.0,67,0.00,,,0.01,meteohub,2013-08-10 18:00:00,
2013-08-10 14:05:00,81.1,68.7,30.11,ESE,123,0.0,5.0,66,0.00,,,0.01,meteohub,2013-08-10 18:05:00,
2013-08-10 14:10:00,81.3,69.8,30.11,WSW,246,0.0,5.0,68,0.00,,,0.01,meteohub,2013-08-10 18:10:00,
2013-08-10 14:15:00,81.3,68.4,30.11,SSW,194,1.0,4.0,65,0.00,,,0.01,meteohub,2013-08-10 18:15:00,
2013-08-10 14:20:00,81.3,68.4,30.11,SW,235,0.0,4.0,65,0.00,,,0.01,meteohub,2013-08-10 18:20:00,
2013-08-10 14:25:00,81.0,68.9,30.11,WSW,243,1.0,4.0,67,0.00,,,0.01,meteohub,2013-08-10 18:25:00,
2013-08-10 14:26:00,81.0,69.4,30.11,West,262,0.0,4.0,68,0.00,,,0.01,meteohub,2013-08-10 18:26:00,
2013-08-10 14:31:00,80.6,68.5,30.11,West,277,1.0,4.0,67,0.00,,,0.01,meteohub,2013-08-10 18:31:00,
2013-08-10 14:36:00,80.1,69.8,30.11,ESE,107,2.0,3.0,71,0.00,,,0.01,meteohub,2013-08-10 18:36:00,
2013-08-10 14:41:00,79.5,68.5,30.11,ENE,61,1.0,3.0,69,0.00,,,0.01,meteohub,2013-08-10 18:41:00,
2013-08-10 14:46:00,79.7,68.5,30.11,North,1,1.0,3.0,69,0.00,,,0.01,meteohub,2013-08-10 18:46:00,
2013-08-10 14:51:00,79.5,69.3,30.11,NNW,343,0.0,3.0,71,0.00,,,0.01,meteohub,2013-08-10 18:51:00,
2013-08-10 14:56:00,79.2,68.9,30.11,NNW,327,1.0,5.0,71,0.00,,,0.01,meteohub,2013-08-10 18:56:00,
2013-08-10 15:01:00,78.8,66.0,30.11,WNW,294,0.0,5.0,65,0.00,,,0.01,meteohub,2013-08-10 19:01:00,
2013-08-10 15:06:00,78.6,65.5,30.11,WNW,297,0.0,2.0,64,0.00,,,0.01,meteohub,2013-08-10 19:06:00,
2013-08-10 15:11:00,78.6,67.1,30.11,WNW,297,0.0,2.0,68,0.00,,,0.01,meteohub,2013-08-10 19:11:00,
2013-08-10 15:16:00,79.0,66.2,30.11,West,278,0.0,1.0,65,0.00,,,0.01,meteohub,2013-08-10 19:16:00,
2013-08-10 15:21:00,79.3,66.9,30.11,NW,311,0.0,1.0,66,0.00,,,0.01,meteohub,2013-08-10 19:21:00,
2013-08-10 15:26:00,79.2,66.4,30.11,WNW,300,0.0,1.0,65,0.00,,,0.01,meteohub,2013-08-10 19:26:00,
2013-08-10 15:31:00,80.1,67.3,30.11,West,267,0.0,1.0,65,0.00,,,0.01,meteohub,2013-08-10 19:31:00,
2013-08-10 15:36:00,81.3,68.0,30.11,SSW,210,0.0,1.0,64,0.00,,,0.01,meteohub,2013-08-10 19:36:00,
2013-08-10 15:41:00,81.7,68.4,30.11,West,269,1.0,2.0,64,0.00,,,0.01,meteohub,2013-08-10 19:41:00,
2013-08-10 15:46:00,81.9,65.7,30.11,WNW,284,0.0,3.0,58,0.00,,,0.01,meteohub,2013-08-10 19:46:00,
2013-08-10 15:51:00,82.0,65.8,30.11,West,260,0.0,3.0,58,0.00,,,0.01,meteohub,2013-08-10 19:51:00,
2013-08-10 15:56:00,82.4,66.6,30.11,West,266,1.0,2.0,59,0.00,,,0.01,meteohub,2013-08-10 19:56:00,
2013-08-10 16:01:00,82.6,66.4,30.11,North,351,0.0,2.0,58,0.00,,,0.01,meteohub,2013-08-10 20:01:00,
2013-08-10 16:06:00,82.2,67.5,30.11,NW,311,1.0,2.0,61,0.00,,,0.01,meteohub,2013-08-10 20:06:00,
2013-08-10 16:11:00,81.7,65.5,30.11,West,267,1.0,2.0,58,0.00,,,0.01,meteohub,2013-08-10 20:11:00,
2013-08-10 16:16:00,81.5,66.7,30.11,West,270,1.0,2.0,61,0.00,,,0.01,meteohub,2013-08-10 20:16:00,
2013-08-10 16:21:00,81.7,66.9,30.11,WSW,252,0.0,2.0,61,0.00,,,0.01,meteohub,2013-08-10 20:21:00,
2013-08-10 16:26:00,81.7,66.0,30.11,NW,319,0.0,2.0,59,0.00,,,0.01,meteohub,2013-08-10 20:26:00,
2013-08-10 16:31:00,81.7,66.4,30.11,NNW,338,0.0,2.0,60,0.00,,,0.01,meteohub,2013-08-10 20:31:00,
2013-08-10 16:36:00,80.8,66.6,30.11,WNW,300,0.0,2.0,62,0.00,,,0.01,meteohub,2013-08-10 20:36:00,
2013-08-10 16:41:00,80.4,66.2,30.11,NW,312,0.0,1.0,62,0.00,,,0.01,meteohub,2013-08-10 20:41:00,
2013-08-10 16:46:00,80.1,64.9,30.11,North,349,1.0,3.0,60,0.00,,,0.01,meteohub,2013-08-10 20:46:00,
2013-08-10 16:51:00,79.7,65.1,30.11,North,349,1.0,3.0,61,0.00,,,0.01,meteohub,2013-08-10 20:51:00,
2013-08-10 16:56:00,80.2,66.6,30.11,NNW,348,0.0,3.0,63,0.00,,,0.01,meteohub,2013-08-10 20:56:00,
2013-08-10 17:01:00,80.8,67.5,30.11,NNW,346,0.0,1.0,64,0.00,,,0.01,meteohub,2013-08-10 21:01:00,
2013-08-10 17:06:00,80.4,68.0,30.11,North,1,0.0,1.0,66,0.00,,,0.01,meteohub,2013-08-10 21:06:00,
2013-08-10 17:11:00,79.7,65.5,30.11,ENE,66,1.0,2.0,62,0.00,,,0.01,meteohub,2013-08-10 21:11:00,
2013-08-10 17:16:00,79.5,65.8,30.11,WNW,297,0.0,2.0,63,0.00,,,0.01,meteohub,2013-08-10 21:16:00,
2013-08-10 17:21:00,79.3,66.6,30.11,West,281,0.0,2.0,65,0.00,,,0.01,meteohub,2013-08-10 21:21:00,
2013-08-10 17:26:00,79.0,64.8,30.11,WNW,282,0.0,1.0,62,0.00,,,0.01,meteohub,2013-08-10 21:26:00,
2013-08-10 17:31:00,78.6,65.8,30.11,ENE,74,0.0,1.0,65,0.00,,,0.01,meteohub,2013-08-10 21:31:00,
2013-08-10 17:36:00,78.3,67.6,30.11,ESE,120,0.0,0.0,70,0.00,,,0.01,meteohub,2013-08-10 21:36:00,
2013-08-10 17:41:00,77.4,66.4,30.11,NE,46,0.0,0.0,69,0.00,,,0.01,meteohub,2013-08-10 21:41:00,
2013-08-10 17:46:00,76.8,67.5,30.11,ENE,66,0.0,0.0,73,0.00,,,0.01,meteohub,2013-08-10 21:46:00,
2013-08-10 17:51:00,76.5,68.0,30.11,ENE,66,0.0,0.0,75,0.00,,,0.01,meteohub,2013-08-10 21:51:00,
2013-08-10 17:56:00,76.3,68.9,30.11,ENE,66,0.0,0.0,78,0.00,,,0.01,meteohub,2013-08-10 21:56:00,
2013-08-10 18:01:00,75.9,67.8,30.11,NE,48,0.0,0.0,76,0.00,,,0.01,meteohub,2013-08-10 22:01:00,
2013-08-10 18:06:00,75.6,67.8,30.11,NE,50,0.0,0.0,77,0.00,,,0.01,meteohub,2013-08-10 22:06:00,
2013-08-10 18:11:00,75.6,68.2,30.11,NNE,13,0.0,0.0,78,0.00,,,0.01,meteohub,2013-08-10 22:11:00,
2013-08-10 18:16:00,75.7,65.7,30.11,NNE,13,0.0,0.0,71,0.00,,,0.01,meteohub,2013-08-10 22:16:00,
2013-08-10 18:21:00,76.3,66.2,30.11,NNE,13,0.0,0.0,71,0.00,,,0.01,meteohub,2013-08-10 22:21:00,
2013-08-10 18:26:00,76.6,66.6,30.11,NNE,13,0.0,0.0,71,0.00,,,0.01,meteohub,2013-08-10 22:26:00,
2013-08-10 18:31:00,76.6,66.6,30.11,NNE,13,0.0,0.0,71,0.00,,,0.01,meteohub,2013-08-10 22:31:00,
2013-08-10 18:36:00,76.6,66.9,30.11,NNE,13,0.0,0.0,72,0.00,,,0.01,meteohub,2013-08-10 22:36:00,
2013-08-10 18:41:00,76.5,66.7,30.11,NNE,13,0.0,0.0,72,0.00,,,0.01,meteohub,2013-08-10 22:41:00,
2013-08-10 18:46:00,76.3,66.6,30.11,NNE,13,0.0,0.0,72,0.00,,,0.01,meteohub,2013-08-10 22:46:00,
2013-08-10 18:51:00,76.3,68.2,30.11,NNE,13,0.0,0.0,76,0.00,,,0.01,meteohub,2013-08-10 22:51:00,
2013-08-10 18:56:00,76.1,69.1,30.12,NNE,13,0.0,0.0,79,0.00,,,0.01,meteohub,2013-08-10 22:56:00,
2013-08-10 19:01:00,75.7,68.0,30.12,NNE,12,0.0,0.0,77,0.00,,,0.01,meteohub,2013-08-10 23:01:00,
2013-08-10 19:06:00,75.0,66.9,30.12,NNE,13,0.0,0.0,76,0.00,,,0.01,meteohub,2013-08-10 23:06:00,
2013-08-10 19:11:00,74.7,66.9,30.12,NNE,13,0.0,0.0,77,0.00,,,0.01,meteohub,2013-08-10 23:11:00,
2013-08-10 19:16:00,74.5,67.1,30.12,NNE,13,0.0,0.0,78,0.00,,,0.01,meteohub,2013-08-10 23:16:00,
2013-08-10 19:21:00,74.1,67.6,30.12,NNE,13,0.0,0.0,80,0.00,,,0.01,meteohub,2013-08-10 23:21:00,
2013-08-10 19:26:00,73.9,67.8,30.13,NNE,13,0.0,0.0,81,0.00,,,0.01,meteohub,2013-08-10 23:26:00,
2013-08-10 19:31:00,73.6,66.7,30.13,NNE,13,0.0,0.0,79,0.00,,,0.01,meteohub,2013-08-10 23:31:00,
2013-08-10 19:36:00,73.2,66.7,30.13,NNE,13,0.0,0.0,80,0.00,,,0.01,meteohub,2013-08-10 23:36:00,
2013-08-10 19:41:00,73.0,66.2,30.13,NNE,13,0.0,0.0,79,0.00,,,0.01,meteohub,2013-08-10 23:41:00,
2013-08-10 19:46:00,72.9,66.0,30.14,NNE,13,0.0,0.0,79,0.00,,,0.01,meteohub,2013-08-10 23:46:00,
2013-08-10 19:51:00,72.5,65.7,30.14,NNE,13,0.0,0.0,79,0.00,,,0.01,meteohub,2013-08-10 23:51:00,
2013-08-10 19:56:00,72.1,65.3,30.14,NNE,13,0.0,0.0,79,0.00,,,0.01,meteohub,2013-08-10 23:56:00,
2013-08-10 20:01:00,71.8,65.3,30.14,NNE,13,0.0,0.0,80,0.00,,,0.01,meteohub,2013-08-11 00:01:00,
2013-08-10 20:06:00,71.4,64.9,30.14,NNE,12,0.0,0.0,80,0.00,,,0.01,meteohub,2013-08-11 00:06:00,
2013-08-10 20:11:00,71.1,65.3,30.15,NNE,13,0.0,0.0,82,0.00,,,0.01,meteohub,2013-08-11 00:11:00,
2013-08-10 20:16:00,70.9,65.5,30.15,NNE,12,0.0,0.0,83,0.00,,,0.01,meteohub,2013-08-11 00:16:00,
2013-08-10 20:21:00,70.5,64.8,30.15,NNE,13,0.0,0.0,82,0.00,,,0.01,meteohub,2013-08-11 00:21:00,
2013-08-10 20:22:00,70.3,64.9,30.15,NNE,12,0.0,0.0,83,0.00,,,0.01,meteohub,2013-08-11 00:22:00,
2013-08-10 20:27:00,70.2,64.0,30.15,NNE,13,0.0,0.0,81,0.00,,,0.01,meteohub,2013-08-11 00:27:00,
2013-08-10 20:32:00,70.0,64.2,30.15,NNE,13,0.0,0.0,82,0.00,,,0.01,meteohub,2013-08-11 00:32:00,
2013-08-10 20:37:00,69.6,63.9,30.16,NNE,13,0.0,0.0,82,0.00,,,0.01,meteohub,2013-08-11 00:37:00,
2013-08-10 20:42:00,69.4,63.7,30.16,NNE,12,0.0,0.0,82,0.00,,,0.01,meteohub,2013-08-11 00:42:00,
2013-08-10 20:47:00,69.3,62.8,30.17,NNE,13,0.0,0.0,80,0.00,,,0.01,meteohub,2013-08-11 00:47:00,
2013-08-10 20:52:00,69.1,63.0,30.17,NNE,13,0.0,0.0,81,0.00,,,0.01,meteohub,2013-08-11 00:52:00,
2013-08-10 20:57:00,69.1,62.6,30.17,NNE,15,0.0,0.0,80,0.00,,,0.01,meteohub,2013-08-11 00:57:00,
2013-08-10 21:02:00,68.7,61.9,30.17,NNE,15,0.0,0.0,79,0.00,,,0.01,meteohub,2013-08-11 01:02:00,
2013-08-10 21:07:00,68.7,61.9,30.18,NNE,15,0.0,0.0,79,0.00,,,0.01,meteohub,2013-08-11 01:07:00,
2013-08-10 21:12:00,68.7,62.6,30.18,NNE,15,0.0,0.0,81,0.00,,,0.01,meteohub,2013-08-11 01:12:00,
2013-08-10 21:17:00,68.5,61.7,30.18,North,9,0.0,0.0,79,0.00,,,0.01,meteohub,2013-08-11 01:17:00,
2013-08-10 21:22:00,68.5,61.7,30.18,North,9,0.0,0.0,79,0.00,,,0.01,meteohub,2013-08-11 01:22:00,
2013-08-10 21:27:00,68.4,60.4,30.18,NNE,15,0.0,0.0,76,0.00,,,0.01,meteohub,2013-08-11 01:27:00,
2013-08-10 21:32:00,68.4,60.1,30.19,NE,36,0.0,0.0,75,0.00,,,0.01,meteohub,2013-08-11 01:32:00,
2013-08-10 21:37:00,68.5,61.0,30.19,NE,36,0.0,0.0,77,0.00,,,0.01,meteohub,2013-08-11 01:37:00,
2013-08-10 21:42:00,68.4,60.1,30.19,NE,36,0.0,0.0,75,0.00,,,0.01,meteohub,2013-08-11 01:42:00,
2013-08-10 21:47:00,68.2,59.9,30.19,NE,36,0.0,0.0,75,0.00,,,0.01,meteohub,2013-08-11 01:47:00,
2013-08-10 21:52:00,67.8,59.5,30.19,NE,36,0.0,0.0,75,0.00,,,0.01,meteohub,2013-08-11 01:52:00,
2013-08-10 21:57:00,67.6,59.7,30.19,NE,36,0.0,0.0,76,0.00,,,0.01,meteohub,2013-08-11 01:57:00,
2013-08-10 22:02:00,67.5,59.2,30.19,NE,36,0.0,0.0,75,0.00,,,0.01,meteohub,2013-08-11 02:02:00,
2013-08-10 22:07:00,67.3,59.0,30.19,NE,36,0.0,0.0,75,0.00,,,0.01,meteohub,2013-08-11 02:07:00,
2013-08-10 22:12:00,67.3,59.5,30.20,NE,36,0.0,0.0,76,0.00,,,0.01,meteohub,2013-08-11 02:12:00,
2013-08-10 22:17:00,67.1,59.7,30.20,NE,36,0.0,0.0,77,0.00,,,0.01,meteohub,2013-08-11 02:17:00,
2013-08-10 22:22:00,66.9,59.5,30.19,NE,36,0.0,0.0,77,0.00,,,0.01,meteohub,2013-08-11 02:22:00,
2013-08-10 22:27:00,66.9,59.9,30.20,NE,36,0.0,0.0,78,0.00,,,0.01,meteohub,2013-08-11 02:27:00,
2013-08-10 22:32:00,66.7,59.4,30.20,NE,36,0.0,0.0,77,0.00,,,0.01,meteohub,2013-08-11 02:32:00,
2013-08-10 22:37:00,66.7,59.4,30.20,NE,36,0.0,0.0,77,0.00,,,0.01,meteohub,2013-08-11 02:37:00,
2013-08-10 22:42:00,66.7,59.0,30.20,NE,36,0.0,0.0,76,0.00,,,0.01,meteohub,2013-08-11 02:42:00,
2013-08-10 22:47:00,66.7,59.0,30.19,NE,36,0.0,0.0,76,0.00,,,0.01,meteohub,2013-08-11 02:47:00,
2013-08-10 22:52:00,66.6,58.8,30.20,NE,36,0.0,0.0,76,0.00,,,0.01,meteohub,2013-08-11 02:52:00,
2013-08-10 22:58:00,66.4,59.0,30.20,NE,36,0.0,0.0,77,0.00,,,0.01,meteohub,2013-08-11 02:58:00,
2013-08-10 23:03:00,66.2,58.8,30.20,NE,36,0.0,0.0,77,0.00,,,0.01,meteohub,2013-08-11 03:03:00,
2013-08-10 23:08:00,66.0,59.0,30.20,NE,36,0.0,0.0,78,0.00,,,0.01,meteohub,2013-08-11 03:08:00,
2013-08-10 23:13:00,65.8,58.8,30.21,NE,36,0.0,0.0,78,0.00,,,0.01,meteohub,2013-08-11 03:13:00,
2013-08-10 23:18:00,65.7,58.6,30.21,NE,36,0.0,2.0,78,0.00,,,0.01,meteohub,2013-08-11 03:18:00,
2013-08-10 23:23:00,65.5,57.4,30.21,NE,36,1.0,2.0,75,0.00,,,0.01,meteohub,2013-08-11 03:23:00,
2013-08-10 23:29:00,65.3,57.9,30.21,NE,36,1.0,2.0,77,0.00,,,0.01,meteohub,2013-08-11 03:29:00,
2013-08-10 23:34:00,64.9,58.3,30.21,NE,36,0.0,2.0,79,0.00,,,0.01,meteohub,2013-08-11 03:34:00,
2013-08-10 23:40:00,64.8,58.8,30.21,NE,37,0.0,2.0,81,0.00,,,0.01,meteohub,2013-08-11 03:40:00,
2013-08-10 23:45:00,64.4,58.1,30.21,NE,36,0.0,2.0,80,0.00,,,0.01,meteohub,2013-08-11 03:45:00,
2013-08-10 23:50:00,64.0,57.7,30.21,NE,36,0.0,1.0,80,0.00,,,0.01,meteohub,2013-08-11 03:50:00,
2013-08-10 23:55:00,63.9,57.2,30.21,NE,36,0.0,1.0,79,0.00,,,0.01,meteohub,2013-08-11 03:55:00,